Weather in Platovka

Russia / Orenburg Oblast     51°58′34″N   53°54′27″E
temp.,
°C
wind,
m/s
gust,
m/s
humid.,
%
clouds,
%
prec.,
mm/h
press.,
hPa
HPBL,
m
1 march, mon
mon123:00−12wnw479699 0.4 1011185
02:00−13nw359696 0.2 1012143
05:00−15nw239693 0.3 101487
08:00−16nw369691 0.1 1016175
11:00−15nw349488 0.3 1018232
14:00−14nw359395 0.1 1019287
17:00−14wnw359496 0.1 1020339
20:00−18wnw3399100 0.0 102234
2 march, tue
tue223:00−21wnw2310098 0.1 102320
02:00−22w2310097 0.0 102221
05:00−23wsw2310074 0.0 102221
08:00−23ssw4510091 0.0 102094
11:00−18ssw6119996 0.1 1019278
14:00−12ssw81395100 0.1 1015409
17:00−8sw91594100 0.9 1012734
20:00−5sw81595100 1.2 1009796
3 march, wed
wed323:00−4sw91595100 1.9 1007727
02:00−4sw81495100 1.1 1004643
05:00−3sw71396100 2.2 1004553
08:00−3sw5997100 1.1 1003416
11:00−2wsw4697100 1.8 1003337
14:00−1wnw3497100 0.4 1003326
17:00−2nw349397 0.4 1003305
20:00−7nw349694 0.0 100441
4 march, thu
thu423:00−8wnw359783 0.1 100699
02:00−9wnw359793 0.1 100794
05:00−10wnw479785 0.2 1008147
08:00−14wnw359992 0.1 101080
11:00−11w479696 0.1 1012241
14:00−9wsw589478 0.0 1012312
17:00−7sw7129488 0.1 1012531
20:00−6sw81394100 0.2 1012686
5 march, fri
fri523:00−4sw91693100 0.4 1010841
02:00−3sw101793100 0.3 1008869
05:00−2sw111791100 0.6 1007895
08:00−3sw111892100 0.1 1007791
11:00−3wsw111795100 0.4 1008800
14:00−1wsw91395100 0.4 1010855
17:00−1wsw81297100 1.3 1012705
20:00−1wsw61098100 1.1 1013507